Fayetteville, NC

1:31 AM EDT on July 21, 2017 (GMT -0400)
Fayetteville Regional-Grannis

Weather History for KFAY - July, 2013

Change the Weather History Date:

Wednesday, July 3, 2013

  Actual Average Record
Temperature  
Mean Temperature 80 °F 81 °F  
Max Temperature 86 °F 91 °F 100 °F (1954)
Min Temperature 73 °F 71 °F 54 °F (1932)
Degree Days  
Heating Degree Days 0 0  
Month to date heating degree days 0 0  
Since 1 June heating degree days 0 0  
Since 1 July heating degree days 0 0  
Cooling Degree Days 15 16  
Month to date cooling degree days 41 48  
Year to date cooling degree days 685 728  
Since 1 June cooling degree days 436 444  
Growing Degree Days 28 (Base 50)    
Moisture  
Dew Point 74 °F    
Average Humidity 81    
Maximum Humidity 100    
Minimum Humidity 61    
Precipitation  
Precipitation 0.95 in 0.16 in 2.52 in (1931)
Month to date precipitation 2.51 0.48  
Year to date precipitation 24.43 20.50  
Sea Level Pressure  
Sea Level Pressure 30.21 in    
Wind  
Wind Speed 7 mph (SSE)    
Max Wind Speed 17 mph    
Max Gust Speed 22 mph    
Visibility 7 miles    
Events Fog , Rain , Thunderstorm    
T = Trace of Precipitation, MM = Missing Value Source: NWS Daily Summary

Daily Weather History Graph

Daily Weather History Graph

Search for Another Location

Airport or City:

Trip Planner

Search our weather history database for the weather conditions in past years. The results will help you decide how hot, cold, wet, or windy it might be!

Date:

Astronomy

Jul. 03, 2013 Rise Set
Actual Time 6:06 AM EDT 8:33 PM EDT
Civil Twilight 5:36 AM EDT 9:02 PM EDT
Nautical Twilight 5:00 AM EDT 9:39 PM EDT
Astronomical Twilight 4:20 AM EDT 10:19 PM EDT
Moon 2:38 AM EDT (7/3) 4:45 PM EDT (7/3)
Length of Visible Light 15h 25m
Length of Day
14h 26m
Waning Crescent, 18% of the Moon is Illuminated
Jul 3
Waning Crescent
Jul 8
New
Jul 15
First Quarter
Jul 22
Full
Jul 29
Last Quarter

Hourly Weather History & Observations

Time (EDT) Temp. Heat Index Dew Point Humidity Pressure Visibility Wind Dir Wind Speed Gust Speed Precip Events Conditions
12:11 AM 75.2 °F - 73.4 °F 94% 30.18 in 7.0 mi SE 4.6 mph - N/A   Overcast
12:53 AM 75.0 °F - 73.9 °F 96% 30.16 in 8.0 mi SE 8.1 mph - N/A   Overcast
1:53 AM 75.0 °F - 73.9 °F 96% 30.16 in 8.0 mi SE 6.9 mph - N/A   Overcast
2:53 AM 75.0 °F - 73.9 °F 96% 30.15 in 6.0 mi SE 9.2 mph - N/A   Overcast
3:53 AM 75.0 °F - 73.9 °F 96% 30.15 in 8.0 mi South 4.6 mph - N/A   Overcast
4:20 AM 75.2 °F - 73.4 °F 94% 30.17 in 8.0 mi South 5.8 mph - N/A   Overcast
4:53 AM 75.0 °F - 73.9 °F 96% 30.16 in 7.0 mi SSE 4.6 mph - N/A   Overcast
5:36 AM 75.2 °F - 73.4 °F 94% 30.19 in 5.0 mi SE 4.6 mph - N/A   Overcast
5:53 AM 75.0 °F - 73.9 °F 96% 30.17 in 7.0 mi SSE 3.5 mph - N/A   Overcast
6:53 AM 75.0 °F - 73.9 °F 96% 30.19 in 4.0 mi SE 5.8 mph - 0.01 in   Overcast
7:03 AM 75.2 °F - 73.4 °F 94% 30.21 in 2.5 mi SE 5.8 mph - N/A   Overcast
7:18 AM 75.2 °F - 75.2 °F 100% 30.21 in 4.0 mi SSE 5.8 mph - N/A   Overcast
7:42 AM 75.2 °F - 75.2 °F 100% 30.22 in 2.5 mi SE 4.6 mph - N/A   Overcast
7:53 AM 75.9 °F - 75.0 °F 97% 30.20 in 2.5 mi SE 3.5 mph - N/A   Overcast
8:00 AM 75.2 °F - 75.2 °F 100% 30.22 in 3.0 mi SE 5.8 mph - N/A   Overcast
8:36 AM 77.0 °F - 75.2 °F 94% 30.22 in 7.0 mi SSE 5.8 mph - N/A   Overcast
8:53 AM 78.1 °F - 75.0 °F 90% 30.21 in 9.0 mi SSE 6.9 mph - N/A   Overcast
9:53 AM 78.1 °F - 75.0 °F 90% 30.21 in 10.0 mi SE 8.1 mph - N/A   Overcast
10:01 AM 78.8 °F - 75.2 °F 89% 30.23 in 10.0 mi SE 5.8 mph - N/A   Mostly Cloudy
10:05 AM 78.8 °F - 75.2 °F 89% 30.24 in 10.0 mi SE 6.9 mph - N/A   Mostly Cloudy
10:12 AM 78.8 °F - 75.2 °F 89% 30.24 in 10.0 mi SE 6.9 mph - N/A   Scattered Clouds
10:32 AM 78.8 °F - 73.4 °F 83% 30.23 in 10.0 mi SE 8.1 mph - N/A   Mostly Cloudy
10:41 AM 78.8 °F - 73.4 °F 83% 30.24 in 10.0 mi SE 9.2 mph - N/A   Scattered Clouds
10:53 AM 78.1 °F - 73.0 °F 84% 30.22 in 10.0 mi SSE 11.5 mph - N/A   Partly Cloudy
11:53 AM 80.1 °F 84.2 °F 73.0 °F 79% 30.21 in 10.0 mi SE 5.8 mph - N/A   Clear
12:53 PM 82.9 °F 88.8 °F 73.0 °F 72% 30.22 in 10.0 mi SE 9.2 mph - N/A   Clear
1:53 PM 84.0 °F 91.9 °F 75.0 °F 74% 30.20 in 10.0 mi SE 12.7 mph - N/A   Mostly Cloudy
2:21 PM 84.2 °F 90.9 °F 73.4 °F 70% 30.21 in 10.0 mi SSE 12.7 mph 19.6 mph N/A   Mostly Cloudy
2:53 PM 84.0 °F 88.4 °F 70.0 °F 63% 30.19 in 10.0 mi WSW 12.7 mph - N/A   Partly Cloudy
3:50 PM 77.0 °F - 73.4 °F 89% 30.22 in 2.5 mi SSE 6.9 mph - 0.06 in Rain Light Rain
3:53 PM 78.1 °F - 73.9 °F 87% 30.20 in 4.0 mi SSE 6.9 mph - 0.06 in Rain Light Rain
4:39 PM 78.8 °F - 75.2 °F 89% 30.20 in 10.0 mi ESE 4.6 mph - 0.00 in   Partly Cloudy
4:53 PM 79.0 °F - 75.0 °F 88% 30.19 in 10.0 mi East 4.6 mph - 0.00 in   Partly Cloudy
5:53 PM 80.6 °F 86.2 °F 75.2 °F 84% 30.18 in 10.0 mi ESE 6.9 mph - N/A Thunderstorm Clear
6:22 PM 77.0 °F - 73.4 °F 89% 30.22 in 1.8 mi South 8.1 mph 20.7 mph 0.05 in Rain , Thunderstorm Light Thunderstorms and Rain
6:38 PM 75.2 °F - 73.4 °F 94% 30.23 in 0.2 mi West 9.2 mph - 0.35 in Fog , Rain , Thunderstorm Heavy Thunderstorms and Rain
6:49 PM 73.4 °F - 71.6 °F 94% 30.24 in 1.0 mi WSW 9.2 mph - 0.45 in Rain Light Rain
6:53 PM 73.9 °F - 71.1 °F 91% 30.22 in 0.8 mi WSW 5.8 mph - 0.62 in Rain Heavy Rain
7:15 PM 73.4 °F - 71.6 °F 94% 30.23 in 1.5 mi Calm Calm - 0.24 in Rain Light Rain
7:17 PM 73.4 °F - 71.6 °F 94% 30.23 in 4.0 mi Calm Calm - 0.24 in Rain Light Rain
7:27 PM 73.4 °F - 71.6 °F 94% 30.23 in 10.0 mi East 3.5 mph - 0.24 in   Mostly Cloudy
7:53 PM 73.9 °F - 73.0 °F 97% 30.22 in 10.0 mi SSE 4.6 mph - 0.26 in Rain Light Rain
8:53 PM 73.9 °F - 73.0 °F 97% 30.22 in 10.0 mi SE 3.5 mph - 0.00 in   Scattered Clouds
9:53 PM 73.9 °F - 73.0 °F 97% 30.23 in 10.0 mi Calm Calm - 0.00 in   Clear
10:53 PM 73.9 °F - 73.0 °F 97% 30.22 in 10.0 mi ESE 6.9 mph - N/A   Clear
11:53 PM 75.0 °F - 73.0 °F 94% 30.24 in 8.0 mi South 3.5 mph - N/A   Mostly Cloudy
11:58 PM 75.2 °F - 73.4 °F 94% 30.26 in 8.0 mi Calm Calm - N/A   Mostly Cloudy